sat.trackr.live / text

‹ back to catalog

STARLINK-5336

NORAD 57138 · 2023-090AP

PAYLOAD ACTIVE UNKNOWN

§ Identity

Operator
Country
US
Launch date
2023-06-23
Launch site
AFETR
Launch vehicle
Mass (kg)
RCS (m²)

Purposes: comms

External: N2YO · Heavens-Above · Gunter

§ Orbital elements

Epoch: 2026-05-25T04:19:23.212128Z

Period
94.27 min
Inclination
43.0025°
Eccentricity
0.0001362
Mean motion
15.27576130 rev/d
Perigee alt
482.1 km
Apogee alt
484.0 km
Semi-major
6,861.2 km
B*
-4.3636e-6
RAAN
191.1974°
Arg perigee
284.2054°
Mean anomaly
75.8646°
Rev number
16,205

§ Raw data

STARLINK-53361 57138U 23090AP  26145.18012977 -.00000382  00000+0 -43636-5 0  99922 57138  43.0025 191.1974 0001362 284.2054  75.8646 15.27576130162056

JSON: /api/v1/satellites/57138 · /tle

For live sub-satellite position, see the globe view (requires WebGL).

§ Visibility from observer

Set your observer location to see the next 7 days of passes ≥ 10°. The values pass through the URL so the page stays shareable.

No JS? Fill the form by hand. The geolocation button needs JavaScript.